Wind_Speed
6 5 4 5 6 7 8 8 6 5 7 9 10 10 8 9 6 3 6 7 4 5 4 2 7 7 5 5 9 10 13 5 3 1 2 6 14 17 17 19 21 19 20 19 18 17 16 16 15 14 14 13 13 13 12 12 11 11 11 11 11 11 10 10 10 10 10 10 10 10 10 10 10 10 10 10 10 9 9 9 9 9 9 9 9 9 10 10 9 9 8 9 10 11 10 11 12
5 6 6 6 8 8 6 6 7 7 9 10 11 11 8 8 8 8 8 8 4 6 6 6 9 7 7 9 9 9 11 11 10 6 7 12 16 17 19 20 20 20 19 18 17 17 16 16 15 14 13 13 13 13 12 12 11 11 11 11 11 11 11 10 11 10 10 10 10 10 10 10 10 10 10 10 10 9 9 9 9 9 9 9 9 9 10 9 9 10 10 10 11 11 11 12 13
6 7 8 8 9 8 5 6 9 9 10 11 11 11 9 8 10 10 6 6 6 9 10 9 10 6 6 10 6 4 5 7 11 10 9 15 15 16 21 19 19 19 18 18 17 16 16 16 15 14 14 13 13 13 12 12 12 12 12 12 12 11 11 11 11 11 11 10 10 10 10 10 10 11 11 10 10 9 9 9 9 9 9 9 9 9 9 9 10 11 11 12 12 12 12 13 13
6 8 10 10 8 7 6 7 9 10 11 11 10 13 12 10 10 7 6 7 8 10 11 11 9 3 1 9 6 6 8 7 9 10 9 13 14 19 21 19 19 18 18 18 17 16 16 16 15 14 14 13 13 13 12 12 12 12 13 12 12 12 11 12 11 11 11 11 11 11 10 10 10 11 11 10 10 9 9 9 9 9 9 10 9 8 10 10 11 13 13 13 13 13 13 13 13
7 9 11 10 7 5 7 6 8 11 12 10 10 11 12 12 9 9 9 9 10 11 11 11 7 4 5 7 3 3 8 7 9 11 11 14 16 20 20 19 18 17 17 18 17 16 17 16 15 14 14 13 13 13 12 13 13 13 13 13 12 12 12 12 11 11 11 11 11 11 10 10 10 10 10 9 10 10 10 10 10 9 9 10 10 10 11 11 12 13 13 13 13 13 13 13 13
8 10 10 10 5 3 7 8 10 12 12 11 10 7 8 13 10 12 11 10 9 9 10 8 8 9 8 8 5 5 5 7 11 11 14 18 18 19 19 19 18 17 17 17 17 17 18 17 15 14 13 13 13 13 13 13 13 14 13 13 12 12 12 12 11 11 11 11 11 10 10 10 9 9 9 9 9 9 10 10 11 11 10 10 10 11 12 11 12 13 13 13 13 13 12 12 13
11 9 8 9 5 4 9 11 12 12 12 14 10 4 6 10 11 14 14 11 9 8 8 7 11 11 8 6 7 7 5 7 12 13 17 19 19 19 19 19 18 17 17 16 16 17 17 16 15 14 13 13 13 13 14 14 14 14 13 13 12 12 11 12 12 11 11 11 11 11 10 10 10 10 10 10 10 10 10 10 11 11 10 10 11 12 12 13 13 13 13 14 14 13 13 12 12
12 9 6 8 7 6 9 11 12 11 12 16 11 4 6 9 11 13 15 12 10 10 8 10 13 10 7 6 5 5 5 10 14 18 20 20 20 20 19 19 19 18 16 16 16 17 17 16 15 14 13 13 13 14 14 15 14 14 13 12 12 12 12 12 13 12 12 12 11 11 10 10 10 10 10 10 10 10 10 10 10 11 10 11 12 13 13 14 14 13 14 14 14 13 13 12 12
13 9 6 8 9 8 10 11 12 12 13 15 13 5 7 8 10 12 13 10 10 11 11 12 10 7 9 7 7 6 8 15 20 22 21 21 20 19 19 19 19 18 16 16 16 17 16 16 15 14 14 13 14 14 15 15 14 14 13 12 13 13 14 14 14 13 13 12 11 11 10 9 9 9 9 9 10 10 10 10 10 10 11 12 13 13 13 13 13 14 14 14 13 13 12 12 12
10 8 6 8 10 10 11 11 11 13 13 11 12 9 6 6 9 11 12 10 12 12 11 9 7 9 12 10 8 7 12 20 22 21 21 21 20 19 19 18 18 18 17 16 16 16 16 16 14 14 14 14 15 15 16 16 14 14 13 14 15 15 15 14 13 13 12 11 10 9 9 9 8 8 8 8 8 9 10 10 10 10 11 11 12 12 12 12 13 14 14 14 12 12 12 12 11
8 7 7 8 11 11 11 12 12 13 13 10 9 9 7 7 9 11 11 11 12 12 12 9 9 13 14 10 7 10 18 22 21 22 21 20 19 19 19 18 17 17 17 17 16 16 16 16 15 15 14 14 15 16 17 15 15 15 15 16 16 15 14 13 12 11 10 9 8 8 7 7 7 7 7 8 8 8 9 10 10 10 11 11 12 12 12 12 13 13 13 13 12 12 12 13 12
9 8 8 9 11 11 11 12 13 13 13 11 10 8 8 9 9 11 12 12 12 13 13 11 12 13 12 9 6 12 20 20 21 22 21 20 19 19 18 17 17 17 17 17 17 16 15 16 16 14 15 16 16 16 16 15 16 17 17 17 15 14 13 12 11 10 9 8 8 7 6 5 5 5 5 6 7 7 8 9 10 10 11 12 12 12 12 12 12 13 13 14 13 13 13 13 13
9 10 9 10 11 11 12 12 12 13 12 11 11 9 8 10 11 12 12 13 13 14 12 11 13 12 10 9 8 12 16 18 21 21 21 20 19 18 17 16 16 17 17 17 17 16 15 15 15 14 16 17 16 16 15 15 17 18 17 16 14 13 12 12 11 10 10 9 8 7 6 5 5 4 4 4 5 6 7 8 9 10 10 11 12 12 12 12 12 12 13 14 13 13 13 13 14
9 9 9 10 11 12 13 11 12 12 10 10 10 9 9 9 10 11 11 14 13 11 11 11 13 11 10 11 9 10 14 20 22 21 21 20 19 18 16 16 16 17 17 17 16 16 15 15 15 15 16 16 16 15 14 17 18 17 16 15 14 13 12 12 11 10 9 8 7 6 6 6 5 5 4 4 4 5 6 7 9 10 10 11 11 12 12 12 12 12 12 14 13 12 12 13 14
10 7 8 10 11 13 12 12 13 12 9 11 10 10 10 5 7 11 11 12 10 8 11 11 7 6 11 12 10 12 19 24 24 22 21 20 20 18 16 16 16 17 16 16 16 16 15 15 16 16 15 15 15 15 15 17 18 16 15 14 13 13 12 11 11 10 9 8 7 6 7 6 6 5 5 5 5 5 6 6 8 10 10 10 11 11 12 12 12 12 13 13 13 12 12 13 13
8 6 7 10 12 13 12 13 13 12 9 12 11 10 10 6 7 8 5 7 11 9 8 7 1 1 9 11 13 22 26 27 25 23 22 20 20 18 17 16 16 16 16 16 15 15 15 15 16 15 15 14 14 14 15 16 16 16 14 14 14 13 12 11 10 9 8 8 7 7 7 6 5 5 5 5 5 5 6 7 7 9 10 9 10 11 12 12 12 12 12 13 12 12 12 12 13
7 7 8 10 12 13 12 14 12 10 9 11 11 12 11 9 7 4 5 8 13 11 6 6 3 1 6 10 21 30 29 27 26 24 23 21 20 18 17 15 15 15 15 15 15 15 14 14 15 15 15 14 14 15 15 15 15 15 14 14 14 13 12 10 9 7 7 6 6 6 5 4 3 3 4 4 5 4 5 7 8 9 9 9 10 10 12 12 12 12 12 12 11 11 12 12 12
8 7 10 11 11 12 12 14 11 9 9 11 12 13 12 11 10 6 8 12 13 12 9 6 3 4 9 17 29 32 29 28 26 24 24 21 19 18 17 16 15 15 15 15 15 15 15 15 15 15 16 15 15 15 14 14 15 14 13 13 12 11 10 9 7 6 4 3 3 3 3 3 1 1 2 2 3 3 4 6 8 10 10 10 10 10 12 12 12 12 12 11 12 13 13 12 12
9 8 10 11 12 12 9 10 10 9 8 10 13 12 11 12 12 10 11 13 13 13 11 10 9 10 14 23 30 30 28 27 26 24 23 20 19 18 17 16 15 15 15 15 15 15 15 15 16 15 16 16 15 14 14 14 14 13 12 11 10 9 9 7 5 4 2 1 2 1 2 3 2 1 2 1 2 3 3 4 6 10 11 10 10 11 12 12 12 11 11 11 13 12 11 10 11
10 10 9 11 13 12 5 7 6 5 5 8 11 10 10 12 11 9 12 14 13 11 9 10 10 10 15 22 25 27 27 26 25 23 21 20 19 19 17 17 16 15 15 15 15 14 14 15 15 15 15 15 14 14 13 13 13 12 11 10 9 8 7 5 4 2 1 0 1 0 1 2 2 2 2 1 2 3 3 4 6 9 11 11 11 11 13 13 11 11 11 10 10 9 8 9 10
10 10 10 11 13 10 7 7 3 2 5 6 9 10 11 11 10 8 12 14 10 10 8 8 10 11 14 19 22 24 24 23 24 22 20 20 18 18 17 16 15 15 15 14 15 14 14 15 14 15 15 15 14 14 13 12 12 11 10 9 8 6 4 3 2 1 0 1 1 1 0 1 1 2 1 2 4 4 4 5 6 8 11 12 12 12 14 14 12 11 10 8 8 8 9 9 9
10 11 12 11 10 9 6 4 1 3 6 8 10 10 12 10 9 10 13 12 8 10 10 10 13 14 13 17 21 21 21 21 21 20 19 19 18 17 17 16 15 14 14 13 14 14 14 15 14 15 15 14 13 13 12 12 11 10 9 8 6 5 3 2 1 1 2 2 3 2 2 2 1 1 1 2 4 5 4 4 5 7 10 12 13 12 13 12 10 10 9 8 8 9 9 9 9
10 11 13 9 8 9 3 2 2 4 9 13 13 9 12 12 10 10 10 7 8 7 5 9 14 15 14 16 18 18 19 19 19 20 19 19 18 17 17 16 15 14 14 14 13 14 15 15 14 15 15 15 13 12 12 11 10 9 8 6 5 3 2 1 1 2 2 3 3 3 3 3 2 1 1 2 4 5 4 4 5 6 8 11 11 10 10 10 9 9 8 8 9 9 9 9 8
10 10 14 10 6 6 2 2 2 3 8 9 10 9 11 12 11 9 8 9 11 8 3 8 15 16 14 14 16 17 18 18 19 20 18 18 18 17 17 16 16 16 14 15 15 14 15 16 15 15 15 15 14 12 11 11 10 8 8 6 4 3 2 1 1 1 1 2 3 4 5 4 4 3 2 3 4 6 5 4 4 5 7 9 10 10 10 10 9 9 9 9 9 9 9 9 8
11 8 12 10 5 2 1 1 2 4 4 2 6 10 8 5 6 8 10 8 9 9 5 10 15 15 13 13 15 16 17 17 19 19 18 16 17 17 17 16 16 16 16 16 15 15 15 16 16 15 15 15 13 12 10 10 9 8 7 5 4 4 2 1 1 1 1 2 3 4 5 5 6 5 3 3 4 6 5 5 5 5 5 7 9 10 10 10 9 9 9 9 9 9 9 8 8
11 8 7 8 4 2 1 2 3 5 5 5 9 11 12 8 5 9 11 7 7 9 9 11 14 15 13 13 14 15 15 16 18 18 17 16 17 17 15 15 16 16 16 16 15 15 15 16 16 16 15 14 13 12 10 9 9 8 7 6 5 4 3 3 3 0 2 3 2 3 4 5 6 6 5 4 4 6 6 5 5 5 4 5 8 10 10 9 10 10 10 9 9 9 9 8 8
11 9 2 5 5 4 2 5 6 7 5 6 10 11 12 7 3 5 7 5 8 10 10 10 13 13 12 12 13 14 14 16 19 17 16 15 15 16 15 15 15 16 16 15 15 14 15 16 16 16 15 13 13 12 10 9 9 8 7 6 5 4 4 4 2 1 2 3 2 3 4 5 6 7 6 5 4 5 6 6 6 5 4 4 7 9 10 10 10 10 10 9 9 9 9 9 8
7 6 3 6 6 8 5 7 5 6 7 5 11 14 12 8 6 5 3 4 8 12 11 9 10 9 7 9 11 12 12 15 18 17 16 15 14 15 15 15 15 15 15 15 14 13 15 16 16 15 15 13 13 12 10 9 9 8 6 6 5 6 6 4 2 2 3 3 3 3 4 4 5 6 7 6 5 5 7 7 8 7 5 4 5 8 11 10 9 10 10 9 9 9 9 9 8
5 4 8 7 7 9 10 7 3 4 5 6 5 11 10 8 6 4 2 4 8 13 13 10 9 7 5 7 10 10 11 14 15 15 16 15 14 14 15 14 15 15 14 15 14 13 15 16 16 15 14 13 13 12 10 9 9 7 7 6 6 8 7 3 2 2 3 3 3 3 3 3 4 6 7 7 6 5 6 8 8 8 6 4 3 6 10 11 10 10 10 10 9 9 9 9 8
7 2 5 5 7 5 10 8 7 7 3 11 5 5 6 5 4 1 2 4 7 10 12 11 8 6 4 8 10 10 12 14 14 15 15 14 14 14 14 14 14 14 12 14 14 14 16 16 16 15 14 14 13 12 10 10 8 7 7 7 8 8 6 3 3 3 3 2 3 3 2 2 4 5 6 6 6 5 6 8 8 9 7 5 4 4 8 11 11 11 11 10 10 9 9 9 8
3 4 1 3 5 3 6 4 8 7 3 11 8 2 7 8 7 4 3 5 7 8 8 8 7 5 5 9 10 11 11 13 15 15 14 14 13 13 14 14 14 13 11 13 14 15 16 16 16 15 15 14 13 12 11 10 9 8 8 8 9 8 5 4 3 3 3 2 3 3 2 2 4 4 5 5 5 5 6 9 9 9 8 6 5 5 7 10 11 12 12 11 11 10 9 9 9
1 1 2 5 5 4 4 3 5 7 3 5 6 2 9 11 12 9 8 8 7 9 8 7 5 4 8 11 11 11 11 13 14 13 14 14 13 13 14 14 14 13 11 13 14 15 16 16 16 15 15 14 13 12 11 10 10 9 9 9 10 9 5 4 3 3 3 2 3 3 1 2 4 4 5 4 5 5 6 8 10 9 8 7 6 5 6 9 11 12 12 12 12 11 10 10 9
1 3 4 6 6 5 5 4 4 6 5 2 5 5 8 10 12 12 11 10 8 9 9 8 6 6 11 11 10 10 10 11 12 13 15 15 13 13 14 14 14 12 11 12 14 16 16 17 16 16 16 14 12 11 11 11 11 9 9 9 10 9 6 4 4 3 3 2 3 3 1 2 4 4 5 4 4 5 6 8 9 9 9 8 6 6 7 9 11 12 12 12 12 11 11 11 10
3 4 2 6 7 5 4 6 5 5 4 3 7 7 7 9 11 10 11 10 9 8 8 9 7 9 12 10 9 9 10 11 12 14 16 15 14 14 13 13 13 12 12 12 14 16 16 16 17 15 14 13 12 12 12 12 11 10 9 9 9 8 6 5 4 3 3 2 3 2 0 2 4 4 5 4 4 5 6 7 8 10 11 10 7 7 8 8 10 12 13 14 13 12 11 12 11
6 5 5 7 8 4 4 8 6 6 6 3 6 8 8 9 7 7 10 10 10 9 8 10 10 12 13 10 9 9 10 10 11 15 17 16 15 14 13 12 12 12 12 13 14 16 16 16 16 15 13 13 13 14 13 12 11 10 9 9 9 8 7 6 4 3 3 2 2 1 0 2 3 4 5 5 4 5 6 7 7 9 11 11 9 8 8 9 10 11 13 14 14 13 12 12 12
11 8 7 9 8 4 6 9 6 8 9 6 7 7 5 5 2 4 9 10 9 9 10 10 11 12 12 9 9 9 10 10 11 15 17 17 15 14 14 13 13 12 12 13 14 16 16 15 15 14 13 14 14 15 13 11 11 10 10 10 10 9 8 6 5 4 3 2 2 1 1 1 3 4 4 5 5 5 5 6 7 8 11 12 11 10 9 10 10 11 12 13 14 14 13 12 11
12 7 9 10 9 7 7 10 7 5 6 6 8 8 5 3 2 6 8 11 10 11 11 11 11 11 10 9 9 9 9 9 11 15 16 16 15 15 14 13 13 12 12 13 14 16 16 16 16 14 14 15 15 14 12 11 11 11 11 11 10 9 8 7 6 5 3 3 1 1 1 2 2 3 4 4 4 5 5 6 7 8 10 12 13 11 9 10 11 11 11 13 14 15 14 13 11
10 7 9 8 8 9 8 9 6 2 2 5 9 8 4 3 7 6 6 11 12 13 12 12 12 10 9 9 10 10 8 8 11 13 15 16 15 15 14 12 13 13 13 14 15 16 16 16 16 15 15 16 15 14 13 12 12 11 10 10 9 9 8 7 7 5 4 3 2 2 2 2 3 3 3 4 4 5 6 6 6 7 8 10 12 12 10 9 10 11 11 11 13 14 14 13 12
7 7 8 8 9 10 8 7 4 0 1 5 8 7 5 8 9 4 7 11 11 12 13 12 12 11 9 10 10 10 9 9 11 12 14 15 15 15 14 12 13 14 14 14 15 17 17 16 16 15 16 16 15 14 14 13 12 11 10 9 9 8 8 7 6 5 5 3 3 3 2 3 3 3 3 4 4 5 5 6 6 7 7 8 10 11 10 9 10 11 11 11 10 12 12 12 13
5 4 5 8 11 9 7 6 5 2 3 4 6 5 4 7 6 6 10 12 10 11 12 11 10 10 10 10 9 10 11 10 11 12 12 13 14 14 14 13 14 14 14 15 16 17 17 17 17 16 17 16 15 15 14 12 12 12 10 9 8 7 7 7 6 5 5 4 3 3 3 3 3 4 4 4 4 5 5 6 6 7 7 7 9 11 11 10 10 10 11 11 10 10 10 10 12
3 3 5 9 11 8 8 7 6 5 4 4 5 3 4 7 8 9 11 13 13 11 11 11 10 10 10 10 10 10 10 10 11 12 12 12 13 13 14 14 14 14 15 16 17 17 17 17 17 17 17 16 15 15 15 12 12 12 10 9 8 7 7 8 8 7 6 5 4 4 3 3 3 4 4 4 4 4 6 6 6 7 7 6 8 10 12 12 12 12 12 12 11 11 10 10 10
4 7 6 10 13 12 12 9 6 4 2 3 5 2 3 8 11 12 10 12 13 11 11 11 11 11 10 10 10 10 10 10 10 11 11 11 12 13 14 14 14 15 15 16 17 17 17 17 18 17 16 16 15 16 16 14 13 13 12 11 11 10 9 9 9 8 7 6 4 3 2 2 3 3 4 4 4 4 5 6 6 7 7 7 7 9 11 12 13 13 13 13 12 12 11 11 10
4 4 5 10 12 13 13 10 6 3 2 6 8 3 2 5 8 9 10 10 11 11 11 11 11 11 11 10 10 10 10 10 10 11 12 12 13 14 15 15 15 15 15 15 16 17 17 17 18 18 17 16 16 16 16 15 14 13 14 13 12 12 11 10 9 8 8 7 4 3 2 2 3 3 4 4 4 4 4 6 6 7 7 8 8 8 9 11 13 13 13 13 13 12 12 11 11
3 6 6 8 11 11 12 11 6 4 5 6 10 8 3 2 2 3 6 8 8 10 11 12 12 11 12 11 11 11 10 10 10 11 12 13 15 15 15 16 16 15 15 15 15 16 17 18 18 18 17 16 16 16 16 16 14 14 14 14 12 12 12 10 9 9 8 7 5 4 3 2 2 3 4 4 4 4 4 5 6 7 7 8 9 9 9 11 12 12 11 12 11 11 12 11 11
5 6 6 7 9 10 11 8 5 5 5 6 10 10 3 2 2 3 4 5 6 8 10 11 12 12 13 12 12 11 10 10 10 11 12 13 15 16 16 15 16 16 15 15 15 15 17 18 19 19 18 16 17 17 17 16 15 14 14 14 13 13 12 10 9 10 9 8 6 5 4 3 2 3 3 4 4 4 4 4 6 7 8 8 8 9 9 10 12 11 10 12 11 11 11 10 10
8 8 8 8 7 7 7 6 6 4 3 4 7 5 2 4 3 3 3 1 1 3 6 8 10 12 12 12 12 11 10 10 11 11 11 13 14 15 15 14 15 16 15 15 15 15 17 19 19 20 19 17 17 18 18 17 16 15 14 14 13 13 12 10 10 10 10 9 8 7 6 4 4 3 3 4 4 5 5 5 5 6 7 8 8 9 9 9 10 10 10 12 12 12 11 11 11
10 9 9 8 6 5 3 3 3 3 3 3 4 1 1 3 4 5 5 3 5 2 2 4 7 10 11 11 11 12 11 10 10 10 11 12 13 14 14 14 14 14 15 15 15 16 17 19 19 20 20 18 17 18 19 17 16 15 14 14 14 13 12 11 11 10 11 10 9 8 7 6 5 4 4 4 5 5 5 5 5 5 6 7 8 8 8 9 10 10 10 11 12 12 12 12 12
6 5 6 5 5 4 3 2 1 3 4 4 3 2 2 4 5 6 7 5 6 4 1 2 5 7 9 11 11 11 11 10 10 10 10 11 12 13 14 13 14 15 15 16 16 17 17 18 19 20 20 19 17 18 19 18 16 15 14 14 14 14 12 12 12 12 12 12 10 9 8 7 6 5 5 5 5 6 6 6 6 6 6 6 7 8 8 9 10 10 10 10 11 12 12 12 12
3 3 4 4 4 4 4 3 1 3 4 3 1 0 3 7 7 8 9 7 7 6 4 3 3 4 6 10 11 10 10 10 10 10 10 10 10 12 14 14 14 16 17 17 17 17 17 18 19 20 20 20 18 18 19 18 17 15 15 15 15 14 13 13 12 12 13 12 11 10 9 8 7 6 6 6 6 6 6 6 7 7 6 6 7 7 8 9 10 10 10 10 11 12 12 13 13
3 3 2 3 4 5 5 4 2 4 4 3 2 0 3 6 7 8 10 8 8 9 8 6 5 4 5 9 10 10 10 10 10 9 10 10 10 12 14 15 16 16 18 18 17 17 17 17 19 19 20 20 18 18 18 18 18 16 15 15 15 15 14 13 13 13 13 13 12 12 11 10 8 7 7 6 6 6 6 6 7 7 7 7 7 7 8 9 9 10 11 11 12 13 13 13 14
3 3 2 2 2 3 5 4 4 6 5 5 5 3 3 5 5 7 8 9 10 10 9 9 7 6 6 8 10 10 10 10 9 9 10 10 11 13 14 15 16 16 18 18 17 17 18 17 18 19 20 20 19 19 19 19 18 17 16 16 16 15 14 13 14 13 13 13 13 13 12 11 9 9 8 7 6 6 6 6 7 8 8 7 8 7 8 8 9 10 11 11 12 12 12 13 13
3 3 2 2 0 1 3 5 5 6 6 5 5 5 5 6 6 7 8 10 12 11 11 11 9 8 8 8 9 9 9 9 8 9 9 10 11 13 14 15 15 15 16 17 17 18 18 17 17 19 20 20 20 20 20 20 19 18 17 17 17 16 15 14 14 14 14 14 14 14 13 12 11 10 9 8 7 7 7 7 7 7 8 8 8 8 8 8 8 8 9 10 11 11 11 12 13
1 2 2 3 0 2 2 7 6 6 6 5 3 6 8 7 8 9 9 11 12 11 12 12 11 10 8 7 7 7 7 8 8 8 9 9 11 12 13 14 14 14 15 16 17 17 17 17 17 18 20 20 20 20 21 20 19 18 18 18 18 17 17 16 15 15 15 15 15 15 14 13 13 12 10 9 9 9 8 8 8 8 8 9 8 8 8 8 7 7 8 9 10 10 10 11 11
1 2 3 1 1 3 2 5 5 5 6 5 4 7 7 5 6 7 9 11 11 11 12 12 11 9 8 7 6 5 5 6 6 6 7 8 9 11 12 12 12 13 14 14 15 16 16 16 17 17 19 20 20 20 20 21 20 19 19 19 19 19 18 18 17 16 16 16 16 16 16 15 14 14 12 11 11 11 10 10 10 9 9 9 9 9 9 8 8 8 8 8 9 9 9 9 10
4 2 1 2 1 2 2 3 4 6 7 5 7 9 7 6 5 6 9 10 10 11 11 11 12 10 8 7 6 5 4 3 4 4 5 5 6 8 9 9 10 11 11 11 13 14 14 15 16 16 17 19 20 19 19 20 20 20 19 19 19 20 19 19 18 17 17 17 17 17 17 17 16 15 15 13 12 12 12 12 12 11 11 11 11 10 10 9 9 9 8 9 9 9 9 9 9
5 3 2 2 0 2 1 2 2 5 6 6 8 8 6 7 7 7 9 11 11 11 10 10 12 11 9 8 6 5 4 3 2 2 2 2 3 5 6 7 7 9 10 10 11 12 13 13 14 15 15 16 17 18 18 19 20 21 19 19 19 20 20 20 19 18 18 18 18 18 17 17 17 17 17 16 14 14 14 13 13 13 12 12 12 12 11 11 11 10 10 9 9 10 10 10 10
4 3 2 2 2 1 2 2 0 2 5 5 6 7 6 6 6 7 9 10 11 11 9 9 11 12 12 11 9 7 6 5 3 2 1 1 2 3 4 5 5 6 7 8 9 10 11 12 12 13 14 14 16 17 17 17 18 17 17 18 19 20 20 20 19 19 19 20 19 19 18 18 18 18 18 17 16 16 16 16 15 15 14 14 13 13 13 12 12 12 11 11 10 11 11 11 10
2 0 1 1 1 1 2 4 2 1 4 5 6 7 6 5 5 6 8 8 9 10 9 9 11 13 12 12 12 11 9 7 6 5 4 3 2 1 1 2 3 4 5 6 7 8 8 9 10 11 13 15 15 16 17 17 15 16 20 21 19 19 19 20 20 20 20 21 20 20 19 18 18 18 18 19 19 18 18 18 17 17 16 15 15 15 14 14 14 13 13 13 12 12 12 11 11
Wind_Direction
210 216 226 225 209 191 197 208 212 197 224 239 226 229 208 198 215 188 173 174 187 164 142 118 133 124 111 120 132 82 38 48 54 5 122 106 131 132 133 136 139 139 133 132 133 133 135 139 140 140 140 137 136 134 131 130 129 126 126 124 121 119 119 118 117 116 112 111 108 106 103 101 100 98 97 93 89 87 86 85 83 81 80 76 74 74 75 75 75 80 81 81 85 87 89 90 88
224 219 217 213 202 201 191 203 228 199 208 232 223 226 207 181 196 212 198 173 149 139 149 135 126 107 95 107 123 101 52 47 60 77 98 122 130 128 138 140 140 136 132 133 131 132 136 141 141 140 139 137 135 133 131 130 130 127 125 123 120 118 118 117 117 115 112 110 107 105 102 102 101 101 98 93 90 88 85 83 83 81 80 77 75 75 78 80 79 84 85 85 87 87 88 90 89
224 207 197 197 201 219 204 200 230 214 208 223 220 218 207 185 195 208 189 144 111 129 145 134 123 100 123 133 123 99 88 77 87 98 116 137 136 136 141 139 140 135 133 134 131 134 137 141 141 139 139 137 136 134 132 131 131 128 125 122 119 118 119 118 117 115 112 109 106 104 103 103 103 103 99 92 89 87 85 82 81 80 81 79 78 81 84 84 84 85 86 87 88 88 90 91 89
208 205 198 195 193 219 213 202 224 226 216 217 220 210 202 202 198 176 132 118 127 143 146 141 124 45 155 139 112 77 106 111 107 114 125 138 139 141 141 139 139 134 136 137 133 136 139 141 140 139 140 137 136 134 134 133 132 129 126 123 120 120 121 119 116 114 111 108 106 103 102 103 104 105 100 94 91 87 85 83 81 82 86 86 83 88 89 88 88 88 86 86 87 88 89 90 90
204 207 208 213 201 210 213 211 220 227 223 215 219 206 194 201 184 139 128 128 144 156 156 152 129 82 66 86 80 104 112 116 121 122 118 123 133 139 140 138 137 135 138 139 137 136 138 140 139 140 139 137 137 136 135 133 133 131 127 124 122 123 121 119 115 113 111 108 106 103 103 103 103 105 103 101 99 93 88 84 83 82 85 87 86 90 94 91 88 87 88 88 87 87 87 89 91
200 197 209 231 249 259 222 215 215 221 225 221 219 195 184 195 168 136 132 131 142 156 160 158 139 128 92 63 48 76 99 126 130 123 122 128 135 137 138 138 137 137 138 138 136 134 138 140 139 140 138 138 138 137 135 133 133 131 127 125 125 124 122 119 116 114 111 110 108 106 105 104 104 104 104 102 99 95 92 88 86 85 87 89 87 91 96 93 89 89 89 89 87 87 86 86 87
194 189 197 225 249 252 224 218 217 219 219 225 224 164 163 178 152 142 138 138 146 154 166 156 143 128 107 117 91 71 64 110 128 128 129 133 136 138 139 139 137 138 138 138 134 132 138 140 139 138 138 140 138 137 135 132 131 128 126 126 126 125 124 122 120 118 116 115 113 112 110 109 107 107 106 102 97 93 92 91 92 92 91 91 91 91 93 92 91 91 89 88 87 87 87 84 86
204 201 190 207 214 210 223 226 221 222 211 218 223 114 118 153 148 153 153 157 157 160 169 156 149 122 113 155 117 95 82 100 123 127 129 133 136 140 141 140 138 139 139 137 133 132 138 139 138 139 140 141 138 136 135 134 131 129 128 128 129 128 127 125 123 120 119 118 117 116 116 115 113 112 111 107 101 94 91 91 95 95 93 92 93 93 93 93 93 92 89 88 88 88 87 86 85
208 210 193 206 214 207 219 227 221 226 213 208 211 136 94 141 160 165 163 162 156 160 162 157 162 131 127 138 112 127 120 116 124 126 132 135 136 140 141 142 141 140 139 137 132 132 138 139 139 140 141 140 137 136 136 134 130 129 131 132 131 130 127 125 122 119 116 114 114 114 115 114 113 113 113 111 105 98 94 92 93 96 97 95 96 97 96 96 95 93 90 89 89 89 87 86 84
203 210 201 206 218 212 213 223 218 221 211 200 208 188 140 152 172 174 170 160 153 153 147 148 154 133 132 127 112 129 131 128 129 132 137 136 137 140 140 143 143 143 140 135 130 131 136 137 141 142 141 139 139 139 137 133 130 133 136 135 133 129 127 125 123 120 117 114 113 112 111 111 108 107 107 110 110 104 97 94 95 98 101 99 100 101 100 97 95 94 92 90 89 88 87 86 85
198 205 213 209 215 216 211 217 214 216 211 199 201 192 177 171 177 181 175 160 154 149 145 145 133 127 126 122 110 124 134 135 136 138 140 139 140 141 140 144 146 145 141 134 130 131 136 139 141 142 141 140 142 140 135 133 134 138 139 136 132 130 128 127 126 122 121 117 114 111 111 111 109 107 103 103 107 110 105 101 99 99 102 104 104 103 101 98 96 95 93 93 91 88 86 85 86
202 192 207 213 213 217 214 215 213 213 209 200 189 177 180 179 181 184 177 164 155 151 154 153 139 131 126 125 120 135 143 143 141 139 141 141 140 140 141 145 147 145 140 133 130 134 140 140 139 141 141 139 140 137 134 135 139 141 140 137 134 133 133 130 128 126 123 118 113 109 109 111 112 112 106 103 102 108 111 108 105 103 105 107 108 104 101 98 96 95 96 98 94 91 88 86 90
213 194 201 215 216 219 217 218 214 211 207 201 189 169 174 184 186 184 176 165 158 160 158 150 144 135 123 125 131 148 152 145 142 140 143 142 139 140 142 145 147 143 138 133 134 138 139 137 138 140 139 138 138 135 136 140 142 144 141 139 139 138 137 134 132 127 122 117 114 106 103 105 108 110 109 109 104 107 116 118 112 110 112 113 112 107 103 100 97 97 101 102 97 94 92 91 97
216 203 207 215 219 222 219 220 212 211 206 189 176 160 171 189 192 187 177 167 160 156 144 141 146 131 119 129 140 158 153 145 143 143 144 141 139 141 144 146 145 142 135 133 138 140 140 140 140 139 138 139 137 135 140 145 146 146 145 144 143 142 140 137 134 128 123 118 110 99 90 89 96 107 112 115 116 111 114 125 124 118 120 122 117 110 106 103 100 100 103 104 101 97 96 99 104
218 216 215 217 220 220 219 221 214 214 204 171 159 157 166 181 188 179 175 168 145 129 132 138 152 138 145 155 162 161 151 146 145 144 143 138 140 141 145 146 144 141 134 135 141 141 142 142 141 140 140 141 139 138 142 148 150 149 149 147 145 144 140 137 135 131 126 115 99 84 66 60 73 91 104 111 120 115 108 122 135 128 128 131 124 114 110 107 104 102 104 105 103 101 102 106 109
222 232 219 218 219 217 215 218 216 216 198 157 149 155 153 149 170 164 153 155 134 133 138 122 40 266 164 160 153 151 147 147 145 144 142 139 140 141 145 146 142 139 135 137 141 142 143 142 143 142 142 144 143 141 143 147 153 154 151 149 147 145 142 140 138 134 127 111 91 72 56 55 66 74 86 102 108 115 124 133 142 138 135 138 131 120 116 113 108 108 108 108 106 106 109 110 110
215 232 220 216 217 217 213 212 215 217 191 146 152 164 153 146 148 116 100 134 131 133 128 84 24 290 152 138 139 144 144 145 145 145 145 144 145 144 147 148 144 143 143 141 141 144 144 144 145 144 145 148 146 144 145 148 155 156 152 152 152 150 148 144 135 127 120 106 87 69 57 63 80 77 81 103 103 111 143 145 147 147 144 144 138 128 123 118 114 116 115 114 113 110 109 110 108
204 221 216 213 215 216 215 214 214 221 199 154 168 177 164 159 148 131 133 135 126 124 124 105 89 112 119 127 135 140 142 145 147 149 148 149 150 148 149 151 152 150 149 146 145 148 147 147 148 147 147 148 147 146 148 150 154 156 153 155 154 153 152 143 129 121 115 104 84 70 66 54 62 90 83 124 126 116 138 146 152 156 153 148 145 139 131 125 121 122 122 122 115 105 103 106 106
205 214 213 216 214 211 221 231 214 217 218 163 176 186 172 164 150 157 157 145 140 134 134 135 126 118 123 130 135 140 144 147 150 153 152 153 153 151 151 153 156 154 152 151 149 151 149 148 149 148 147 147 149 149 150 153 156 158 157 157 156 158 156 145 137 126 106 95 74 59 68 45 38 45 44 95 131 112 113 144 160 162 161 156 151 147 139 132 129 128 127 122 111 105 109 111 110
209 212 214 215 212 207 202 243 218 214 234 163 174 188 173 159 148 168 164 154 150 129 116 127 124 123 135 136 139 144 146 151 154 154 154 154 153 152 153 153 158 158 155 153 150 152 151 150 150 150 149 150 152 152 153 157 159 159 159 161 162 163 160 151 145 125 74 81 69 18 46 28 37 40 37 78 141 129 110 131 158 166 166 162 153 151 148 142 138 135 128 122 116 117 120 114 113
206 211 222 210 209 213 190 218 220 237 234 161 177 179 163 158 153 167 163 163 152 118 102 115 133 143 149 145 146 150 150 153 156 154 155 154 153 153 154 154 158 157 154 154 152 154 154 154 153 152 152 154 159 157 156 161 160 159 162 164 160 159 157 149 146 143 243 245 259 271 263 317 9 50 79 161 176 164 138 135 155 167 171 169 158 157 156 148 145 142 136 135 131 123 118 113 113
206 210 227 212 204 214 191 197 113 279 224 173 200 181 153 158 161 174 175 176 157 135 138 141 151 153 161 157 150 155 155 156 157 155 156 154 153 153 153 153 152 153 155 157 157 158 158 159 158 156 157 160 164 163 160 162 161 163 164 158 154 153 152 150 169 260 261 247 256 272 254 245 258 40 95 168 180 170 153 143 157 169 177 178 169 165 161 152 151 150 146 146 135 123 118 116 117
214 208 220 222 216 215 197 55 75 256 218 189 205 177 150 159 157 170 169 147 110 101 119 137 141 141 161 170 156 158 158 158 158 156 157 156 155 154 153 152 151 156 158 159 161 163 162 162 162 161 162 163 167 166 163 163 164 166 159 155 160 155 155 173 250 279 262 243 254 270 259 243 235 247 126 167 179 173 162 147 152 169 182 186 183 175 166 161 159 156 149 145 138 130 125 121 122
224 213 208 221 239 231 288 355 92 211 211 200 198 160 153 161 148 148 131 107 104 82 45 129 130 132 156 175 164 162 159 158 158 157 159 158 157 156 155 155 155 159 160 161 164 166 167 166 165 165 166 168 169 169 168 165 164 163 157 163 169 157 171 217 276 256 255 256 258 259 255 249 244 243 204 177 181 178 166 152 152 167 185 190 190 186 175 168 164 159 151 148 146 138 132 128 126
219 222 200 211 243 254 314 12 83 146 166 124 133 121 103 107 118 109 92 95 111 108 126 132 127 132 153 174 172 166 159 158 159 159 161 160 159 158 159 159 157 161 162 163 166 167 170 169 168 169 169 171 171 171 171 167 164 161 162 168 165 166 188 169 156 191 307 292 268 257 256 251 249 241 215 190 184 183 172 160 157 161 184 189 188 192 186 174 168 163 157 155 152 145 139 135 132
207 221 186 195 204 183 172 102 95 131 145 135 126 103 81 60 45 63 64 75 100 114 135 128 128 141 155 173 174 168 162 158 159 161 163 163 162 160 161 160 159 162 163 164 166 168 171 171 171 171 171 174 175 175 173 168 168 167 166 167 167 176 181 156 161 256 322 308 290 273 270 259 251 238 216 204 187 186 180 172 167 157 171 189 190 193 191 183 176 169 165 162 158 151 146 144 143
208 209 171 214 169 131 163 113 100 100 111 155 143 109 98 100 72 57 57 85 107 113 124 124 134 148 159 173 173 169 167 162 160 159 161 163 164 164 162 161 163 163 162 165 168 168 172 173 173 174 173 175 178 180 176 172 175 175 173 171 174 181 170 164 189 305 319 320 318 291 281 262 246 231 215 211 199 192 191 184 179 168 160 182 197 195 192 192 185 176 171 167 163 157 153 153 153
231 170 125 238 140 83 45 98 120 119 96 99 124 107 92 103 109 91 78 126 130 119 118 127 141 144 149 179 179 169 171 168 161 157 162 166 167 168 165 165 165 164 166 167 169 169 172 175 176 176 174 176 179 182 183 181 183 184 183 181 179 177 171 183 245 297 316 326 321 300 291 264 236 220 211 213 211 200 197 192 186 180 167 170 198 198 194 195 189 182 176 171 167 160 158 161 159
309 146 153 201 137 73 34 72 125 139 89 21 106 116 81 78 96 98 140 152 137 125 130 143 150 137 132 195 189 167 170 171 166 163 167 169 168 169 168 170 168 167 170 168 169 173 176 178 177 176 176 179 180 183 189 189 191 190 189 189 182 176 177 208 260 296 317 321 319 312 299 262 222 207 207 212 215 207 201 197 191 186 176 162 178 198 196 196 192 185 180 174 170 166 166 166 165
333 299 160 177 153 78 30 60 82 86 17 326 309 147 106 105 122 182 213 159 140 135 143 149 142 127 147 209 194 168 169 171 172 171 169 169 170 172 171 173 174 171 169 169 173 177 180 180 179 178 178 180 181 185 193 194 195 192 186 185 180 180 187 219 258 291 310 319 320 322 308 253 207 200 202 207 217 215 204 201 197 190 182 166 162 189 198 196 195 189 183 179 175 175 174 173 173
338 349 21 203 179 80 32 72 104 107 265 298 304 181 142 148 160 198 219 185 164 140 131 128 115 125 186 217 196 174 175 175 174 170 169 172 171 174 173 173 177 174 169 173 178 180 183 183 182 182 180 181 186 192 198 199 198 190 182 179 179 185 200 230 254 286 300 320 325 330 322 229 194 197 199 203 214 216 207 202 201 194 185 177 171 182 199 199 198 194 189 185 182 182 182 180 181
70 48 216 210 185 113 92 98 133 142 172 288 299 166 142 149 157 172 193 197 178 137 119 115 115 177 212 212 193 177 179 176 172 170 174 176 174 175 175 174 178 176 173 178 180 182 185 185 186 186 182 184 192 199 202 201 196 185 181 181 181 186 206 238 249 279 299 318 326 337 332 207 193 198 203 207 213 216 213 203 203 199 189 186 180 180 198 200 200 200 196 192 190 188 187 186 185
184 222 194 172 156 129 114 88 123 144 131 208 237 176 138 143 154 166 181 186 172 139 132 136 142 216 222 209 190 177 176 172 169 177 179 178 179 178 175 174 177 177 179 182 182 184 187 187 188 189 188 191 197 199 198 198 192 180 180 183 183 188 208 239 246 270 291 313 327 339 339 193 194 203 208 216 221 225 220 207 205 201 196 193 185 184 197 200 198 200 202 199 197 193 191 191 188
200 213 146 122 106 84 122 122 128 145 131 176 193 168 130 132 149 163 174 178 171 147 142 151 163 218 222 203 189 180 178 175 172 179 180 180 182 178 173 172 175 180 182 186 185 186 188 187 187 190 193 197 197 193 190 190 187 178 180 184 185 193 213 234 244 266 284 308 328 341 319 193 197 208 217 225 234 235 224 211 207 202 201 200 193 191 196 201 199 201 203 201 201 200 196 195 193
178 174 133 121 99 86 154 132 132 146 129 156 166 142 124 127 141 165 177 182 177 160 158 169 179 210 217 201 191 186 183 182 179 180 180 182 180 174 173 172 177 183 183 187 189 189 188 187 188 190 192 193 190 190 188 184 183 180 181 187 191 203 223 230 233 260 278 298 325 335 243 204 209 218 227 235 241 237 221 211 206 200 202 202 200 198 195 196 198 201 204 202 203 206 202 200 197
178 177 144 140 128 139 150 122 132 145 136 159 151 121 107 113 126 207 185 184 189 176 174 182 187 202 211 201 195 190 186 185 181 181 182 181 176 172 175 174 178 185 184 188 192 190 188 187 187 187 187 186 184 186 185 180 182 184 187 195 202 214 227 229 231 253 269 279 311 316 250 221 226 228 233 239 241 235 218 208 203 197 201 203 202 201 196 194 195 198 203 203 205 207 206 206 201
174 167 131 136 130 134 147 132 138 155 148 147 116 91 65 74 281 260 197 185 194 192 188 191 194 199 202 200 198 193 190 186 180 183 184 179 173 173 175 177 180 184 188 191 192 190 189 188 187 182 182 184 183 183 182 181 184 188 194 203 214 220 226 230 232 243 256 260 273 287 268 243 242 240 238 239 236 231 216 204 199 196 200 203 203 202 199 192 191 195 200 205 209 208 208 209 202
155 138 125 135 133 132 142 135 134 172 163 116 108 103 100 207 242 262 220 202 199 196 196 195 197 199 197 200 201 195 192 184 180 185 184 177 175 173 173 178 183 186 190 192 192 190 190 191 189 184 183 185 186 184 183 186 191 197 202 210 219 223 224 229 234 238 245 248 236 249 265 254 254 248 240 238 233 225 212 202 197 195 198 201 201 201 197 188 189 193 195 202 210 211 213 211 203
129 126 132 138 137 130 127 133 136 170 86 115 133 138 167 221 236 249 229 222 211 201 200 197 196 197 195 200 201 195 192 186 185 186 181 178 178 175 173 180 187 189 191 194 195 192 191 193 192 188 187 188 188 188 188 192 197 203 210 217 222 225 223 227 239 239 238 242 236 244 256 254 257 251 238 233 229 223 211 205 199 196 198 201 200 199 196 191 191 193 195 201 204 208 215 213 205
81 106 145 142 147 144 131 140 143 121 70 105 145 156 193 224 235 241 233 229 223 208 202 200 199 198 198 199 199 196 193 190 189 186 180 179 180 178 179 184 187 189 192 196 196 193 193 195 193 191 191 190 190 191 194 196 198 199 205 212 215 220 219 217 228 231 231 241 241 246 253 250 255 253 246 236 232 224 213 209 203 199 200 201 201 200 200 199 197 197 199 202 200 203 210 209 208
88 216 206 142 142 135 114 129 134 111 68 84 132 157 218 216 219 230 227 221 217 206 200 203 202 204 205 199 197 199 197 193 191 189 184 182 182 183 186 188 188 190 194 197 195 193 196 197 195 194 193 193 192 192 193 193 195 194 193 196 196 200 207 213 224 229 228 234 241 246 248 248 251 251 247 242 239 224 214 214 208 204 202 202 203 204 205 205 204 204 203 204 205 210 212 206 209
161 213 194 132 131 121 112 123 128 108 88 157 157 167 215 201 211 219 209 207 211 203 202 205 202 202 204 201 198 198 198 196 195 192 187 185 187 188 189 190 191 194 197 197 195 195 198 198 196 195 194 194 193 193 193 193 197 197 194 196 197 201 212 219 224 229 227 228 239 245 246 251 249 245 242 236 236 226 218 216 212 210 206 205 208 207 207 207 207 208 206 206 208 213 217 212 212
161 152 137 131 129 122 126 139 146 140 160 179 174 179 190 178 198 204 193 198 202 202 208 209 206 202 203 204 197 196 197 193 195 194 188 186 189 191 191 191 193 196 198 198 198 198 200 199 198 197 195 195 195 193 195 197 200 202 202 206 209 213 219 221 223 228 229 228 234 241 241 249 242 237 234 230 229 225 220 218 215 219 215 211 213 211 210 208 208 210 206 208 211 211 213 216 216
121 119 136 138 130 133 145 154 181 179 139 162 185 198 194 137 153 162 180 198 197 206 215 211 211 206 203 205 197 194 195 191 193 193 188 186 189 192 194 194 195 197 199 199 199 200 201 202 201 200 197 197 196 195 196 199 202 203 205 210 216 220 222 222 223 225 227 227 229 235 239 241 236 228 226 227 229 225 220 220 217 223 225 219 216 215 214 211 212 212 206 208 215 213 211 218 220
110 125 133 128 133 149 157 164 199 184 146 161 183 197 191 109 134 137 156 187 183 200 214 209 211 209 204 204 197 194 192 192 196 194 189 187 188 192 194 196 196 197 200 200 200 201 202 203 202 201 199 198 197 196 198 201 203 204 206 212 218 223 223 224 227 224 222 222 221 225 234 238 228 220 220 222 227 226 222 223 220 224 228 226 222 219 217 217 217 217 210 210 215 218 217 222 226
121 130 120 117 128 147 166 185 187 156 152 157 146 163 148 105 119 108 102 115 153 186 204 197 199 205 206 202 196 193 190 192 196 195 191 186 187 190 191 194 196 196 201 202 202 203 202 202 203 202 201 200 198 198 200 203 204 206 209 212 217 222 222 223 227 224 219 221 223 225 228 234 233 221 216 219 224 228 225 224 223 224 226 228 228 225 223 222 222 222 220 217 218 222 223 226 230
135 140 129 126 125 140 174 195 175 138 139 133 99 49 277 111 90 61 61 14 349 329 220 176 177 192 201 199 193 191 189 189 192 195 191 183 185 186 186 192 194 196 202 203 204 205 203 202 203 203 203 203 201 199 202 205 206 208 212 213 216 221 223 224 227 226 221 221 227 231 231 233 237 228 218 219 222 226 225 224 226 225 225 227 229 230 229 226 225 226 225 223 222 224 227 228 232
147 153 149 143 127 144 157 133 173 161 125 99 80 8 359 80 72 48 57 41 7 358 356 150 163 178 186 189 189 188 186 185 189 196 190 179 180 183 184 190 194 197 202 204 205 206 207 206 204 204 205 204 202 200 202 205 207 210 213 215 217 220 224 226 228 228 226 225 226 229 234 236 235 229 223 222 222 222 223 222 223 226 226 226 228 230 230 227 228 229 227 227 227 227 230 231 232
148 157 171 163 147 157 153 130 136 132 112 95 126 224 62 76 62 45 56 50 33 39 51 69 108 134 159 175 180 180 181 182 188 196 190 177 178 185 189 193 196 199 203 205 207 207 208 209 207 205 205 205 203 202 203 205 208 211 213 214 216 218 223 228 231 229 226 228 227 225 230 235 236 233 228 227 224 218 218 220 220 223 226 227 229 231 232 231 232 233 231 232 233 232 233 233 234
91 108 143 159 164 156 138 131 131 128 131 140 139 71 94 89 52 43 61 59 49 57 61 61 66 83 127 155 165 169 176 185 190 193 189 182 183 188 192 195 197 200 204 206 209 209 208 209 207 206 207 207 206 204 205 207 209 212 213 214 216 218 222 226 229 230 226 225 225 225 229 232 235 237 233 231 229 220 219 222 222 224 228 229 230 233 236 237 238 238 237 237 239 241 242 239 238
101 98 121 157 191 151 133 133 141 135 133 139 130 94 95 97 44 31 59 70 69 72 74 72 74 84 107 134 150 161 174 185 189 189 189 186 187 192 195 197 200 201 203 205 207 209 208 207 206 206 208 209 208 207 207 209 211 212 213 215 217 220 224 226 225 228 230 228 225 225 229 231 233 237 234 230 228 222 221 223 222 224 227 229 230 234 237 240 242 241 240 240 242 244 245 244 243
127 145 133 105 47 160 120 104 129 150 128 117 120 105 111 113 80 47 48 61 66 76 85 81 78 86 98 120 138 152 168 178 183 185 188 187 187 193 197 198 202 203 200 201 204 206 206 207 206 206 209 209 208 208 209 211 213 213 214 216 218 220 223 225 224 225 229 230 229 228 229 231 233 234 233 229 225 223 223 226 226 224 224 225 228 230 234 238 240 240 240 241 242 242 243 244 243
143 168 82 61 33 265 119 109 144 178 123 97 109 111 117 117 87 59 45 46 46 57 77 78 75 84 91 100 118 139 153 164 177 182 184 186 188 193 198 199 200 200 199 200 202 203 204 206 207 207 208 210 209 209 210 212 213 214 215 216 218 220 222 224 225 226 227 229 231 232 233 233 233 232 231 228 225 223 224 227 229 228 224 224 225 226 229 232 234 237 239 242 242 241 242 241 239
271 84 61 26 198 257 252 123 145 151 104 92 107 101 99 102 80 52 45 49 42 39 54 67 70 76 85 88 97 113 129 146 167 177 178 182 187 194 199 202 202 201 203 202 202 204 205 207 210 210 208 210 212 211 211 212 213 215 217 217 218 220 222 225 226 227 229 229 231 233 234 236 235 234 233 231 228 225 224 226 229 230 228 226 225 225 226 226 227 231 236 240 240 236 237 237 234
268 13 352 257 173 163 187 134 126 120 110 109 104 89 70 66 62 38 33 36 36 32 37 52 56 56 67 79 87 96 107 131 157 175 180 178 186 199 203 206 207 205 207 208 204 204 207 209 212 214 212 212 213 214 213 213 214 216 219 221 221 221 224 227 228 228 228 229 231 232 234 237 237 237 237 235 232 230 228 227 228 231 230 229 227 226 226 224 224 227 231 234 234 230 232 234 232
241 279 258 230 13 15 64 97 101 114 122 128 117 103 70 51 40 33 31 21 20 26 30 43 47 47 51 53 60 78 89 94 129 167 172 165 180 204 210 208 212 211 208 209 206 205 209 211 212 214 215 214 215 216 216 215 216 219 221 222 222 221 224 227 228 228 227 229 232 233 236 237 238 238 238 237 236 235 234 231 231 233 232 231 229 226 226 224 224 226 228 230 229 228 230 233 233
204 219 183 149 124 34 74 95 36 112 125 127 120 109 78 49 27 28 33 26 23 24 31 43 45 44 46 44 42 46 58 62 57 71 82 113 157 195 212 207 215 219 211 208 207 207 209 211 212 213 213 214 216 217 219 219 219 221 225 227 226 224 224 226 228 229 229 230 232 235 236 237 237 237 237 238 238 236 235 235 236 236 235 235 233 228 226 224 225 227 228 230 231 229 232 234 233
302 330 60 96 118 141 127 124 123 89 116 122 121 109 83 49 28 26 25 28 30 26 33 47 46 44 45 45 43 40 42 49 46 46 47 48 62 64 214 202 211 219 215 214 212 211 212 210 209 209 210 213 216 217 220 220 214 216 225 229 227 227 227 228 228 228 229 230 232 233 234 235 236 236 236 237 238 238 237 236 238 238 238 239 237 233 228 225 227 229 228 230 231 231 233 234 233
Height
779 781 780 781 779 780 778 774 781 777 775 779 766 760 752 742 744 748 751 751 752 748 743 744 743 746 753 760 763 766 768 770 777 784 791 791 789 791 792 794 796 797 799 801 803 805 806 808 810 811 813 813 814 815 816 816 817 817 818 818 818 819 819 819 819 820 819 819 819 819 819 819 819 819 819 819 820 820 820 820 820 820 819 819 819 818 818 817 817 817 817 817 816 816 817 816 816
780 781 780 781 778 779 775 771 780 774 777 781 762 754 747 740 748 751 748 748 750 746 743 744 747 751 753 755 757 763 773 775 776 781 787 788 790 792 793 795 796 798 799 801 803 805 807 809 810 812 813 814 815 815 816 817 817 818 818 819 819 819 820 820 820 820 820 820 820 820 820 820 820 820 820 821 821 821 821 821 821 820 820 820 820 819 819 818 818 818 818 817 817 817 817 817 817
780 780 779 780 777 775 769 772 778 770 775 777 759 746 740 745 750 745 742 744 746 743 744 748 752 756 756 760 763 767 778 779 777 782 786 788 790 792 794 795 796 798 800 801 804 806 808 809 811 812 813 814 815 816 817 817 818 819 819 819 820 820 821 821 821 821 821 821 821 821 821 821 821 821 822 822 822 822 822 822 822 821 821 821 821 820 820 819 819 819 819 819 818 818 818 818 819
779 779 778 776 775 776 772 776 774 765 767 764 756 741 738 747 742 740 742 743 744 744 748 752 758 759 756 766 768 768 779 780 779 782 785 788 790 792 794 796 797 799 800 802 804 806 808 809 811 813 814 815 816 816 817 818 819 819 820 820 821 821 822 822 822 822 822 822 822 822 822 822 822 823 823 823 823 823 823 823 822 822 822 822 821 821 821 820 820 820 820 820 820 820 820 820 820
778 778 777 774 774 773 769 771 767 763 757 750 749 737 735 740 737 742 744 744 744 745 750 752 762 761 757 766 766 770 780 780 780 781 784 789 790 793 794 796 798 799 801 802 804 806 808 810 812 813 814 815 816 817 818 819 819 820 820 821 822 822 822 823 823 823 823 823 823 823 823 823 824 824 824 824 824 824 824 823 823 823 823 823 822 822 821 822 821 821 822 821 821 821 821 821 821
778 777 776 774 769 765 766 769 764 759 746 738 741 734 734 733 735 745 745 747 745 745 748 750 759 762 767 772 769 774 780 779 781 782 785 790 792 794 795 797 798 800 802 803 805 807 808 810 812 814 815 816 817 818 818 819 820 821 821 822 823 823 823 823 823 824 823 824 824 824 824 824 825 825 825 825 825 824 824 824 824 824 824 824 823 823 823 823 822 823 823 823 823 823 822 822 822
775 775 775 776 770 765 770 767 758 755 742 733 733 733 735 732 734 743 748 752 752 750 749 751 753 760 773 774 774 780 779 779 781 784 787 790 793 794 796 798 799 801 802 804 806 807 809 811 812 814 815 817 817 818 819 820 821 821 822 823 824 824 824 824 824 824 824 825 825 825 825 826 826 826 826 825 825 825 825 825 825 825 825 824 824 824 824 824 824 824 824 824 824 824 824 824 824
774 772 770 775 772 768 770 762 753 748 740 732 728 733 736 733 735 743 749 752 754 755 753 753 750 763 775 768 778 785 781 782 782 786 789 791 794 795 797 798 800 801 803 805 806 808 810 811 813 815 816 817 818 819 820 821 821 822 823 824 825 825 825 825 825 825 825 826 826 826 826 827 827 827 827 826 826 826 826 826 826 826 826 826 825 825 825 825 825 826 825 826 826 825 826 825 825
772 770 767 772 770 768 768 760 752 743 736 732 729 734 737 735 737 742 747 749 751 753 754 753 750 765 776 772 782 785 782 785 785 788 790 792 794 796 798 799 800 802 803 805 806 808 810 812 814 815 817 818 819 820 820 821 822 823 824 825 825 826 826 826 826 826 826 827 827 827 827 828 828 828 827 827 827 827 827 827 827 827 827 827 826 826 827 827 827 827 827 827 827 827 827 827 827
770 767 767 771 768 767 768 759 750 742 734 732 732 733 736 736 738 741 746 749 749 753 754 751 753 764 772 778 785 783 784 786 786 789 790 793 795 796 799 800 801 802 804 806 807 809 811 813 814 816 817 818 819 820 821 821 822 824 825 826 826 827 827 827 827 827 827 828 828 828 829 829 829 828 828 828 828 828 828 828 828 828 828 828 828 828 828 828 828 828 828 828 829 828 828 828 828
769 766 764 769 769 766 763 756 748 741 733 733 734 731 732 735 739 742 744 749 749 754 756 754 761 766 771 780 784 784 785 786 787 789 791 793 795 797 799 801 802 803 804 806 808 810 812 814 815 817 818 819 820 821 821 822 823 824 825 826 827 828 828 828 828 828 828 829 829 829 829 829 829 829 829 829 829 829 829 829 829 829 829 829 829 829 829 829 829 829 829 829 830 830 830 830 829
767 766 764 769 767 758 753 750 746 740 734 735 737 732 730 734 741 744 746 751 751 755 755 754 761 763 773 782 782 785 785 786 788 789 792 794 796 798 800 801 803 804 805 807 809 811 813 814 816 817 818 819 821 821 822 822 824 825 826 827 828 829 829 829 829 829 829 830 830 830 830 830 830 830 830 830 829 829 829 829 829 830 830 830 830 830 830 830 830 830 831 831 831 831 831 831 831
763 761 764 768 757 750 748 745 741 739 738 736 736 731 730 736 741 743 745 751 752 757 755 751 754 758 772 780 781 784 785 787 788 790 793 794 797 798 800 802 803 804 806 808 810 812 813 814 816 818 818 820 821 822 822 823 825 826 827 828 829 829 830 830 830 830 830 830 830 831 831 831 831 830 830 830 830 830 830 830 830 831 830 831 831 831 831 831 831 832 832 832 832 833 832 832 832
760 754 760 763 752 747 745 742 739 739 739 732 731 731 733 737 738 738 743 752 753 754 752 748 750 759 772 780 784 784 783 787 788 791 793 795 797 799 801 802 804 805 806 809 811 812 814 815 817 818 819 820 821 822 823 824 825 827 828 829 830 830 830 830 830 831 831 831 831 831 831 831 831 831 831 831 831 831 831 831 831 831 831 831 832 831 832 832 832 833 833 833 834 834 834 834 834
757 751 754 758 753 748 743 741 737 739 736 728 731 733 736 737 734 738 742 752 756 749 748 750 750 759 769 774 780 779 781 786 788 791 793 795 798 799 802 802 804 805 807 810 811 813 814 816 817 818 820 821 822 823 824 825 826 828 829 830 830 831 831 831 831 831 831 832 832 832 832 832 832 832 832 831 831 831 831 831 831 832 832 832 832 832 832 833 833 834 834 835 835 835 835 835 835
755 752 755 759 755 750 744 740 737 740 733 727 733 734 741 742 735 742 743 746 755 751 751 757 757 759 762 763 769 773 780 785 788 792 793 796 798 800 802 803 805 806 808 810 812 814 814 816 817 819 820 821 822 823 825 826 827 828 829 830 831 831 831 832 832 832 832 833 833 833 833 833 833 833 832 832 832 832 831 832 832 832 833 833 833 833 833 833 834 835 835 836 836 836 836 836 836
756 757 759 760 755 749 744 740 739 739 730 729 736 735 744 748 741 744 743 744 754 756 757 762 761 759 759 760 765 772 780 785 788 791 793 796 798 800 801 803 804 805 808 810 812 814 815 816 817 818 820 821 822 823 825 826 828 829 830 831 831 832 832 832 832 833 833 833 834 834 834 834 834 833 833 833 833 832 832 832 832 832 833 833 834 834 834 834 835 836 836 836 836 836 836 837 837
758 760 760 758 752 746 738 735 734 732 730 734 738 736 742 749 748 746 746 751 757 760 762 764 764 760 761 763 768 775 781 785 788 790 792 795 796 798 800 802 804 805 807 809 811 813 815 816 817 818 819 821 823 824 825 826 828 829 830 831 831 832 832 833 833 833 834 834 834 834 834 834 834 834 833 833 833 833 832 832 832 833 833 834 834 834 835 835 836 836 837 837 837 837 837 838 839
757 757 757 754 745 738 731 730 728 729 732 733 736 736 739 745 747 745 751 759 758 762 765 764 768 767 766 768 773 778 781 785 788 790 791 793 795 796 798 801 803 804 806 809 810 812 814 815 817 818 819 821 822 824 825 826 828 829 830 831 832 833 833 833 833 834 834 834 834 834 834 834 834 834 833 833 833 833 833 833 833 833 833 834 834 835 835 836 836 837 837 838 838 837 838 839 839
754 752 755 748 738 734 733 733 730 731 730 732 740 739 739 743 745 746 754 760 759 764 768 768 776 778 774 773 776 779 782 786 788 790 791 792 794 796 798 800 802 804 806 808 810 812 814 815 817 818 819 821 822 824 825 827 828 829 830 831 832 832 833 833 833 834 834 834 834 834 835 834 834 833 833 833 833 833 833 833 833 833 834 834 835 835 835 836 836 837 838 838 838 838 839 839 840
751 749 751 741 735 737 736 735 732 733 730 735 745 742 743 744 744 749 753 762 766 768 770 771 777 780 780 777 777 780 782 785 788 790 791 793 795 796 798 800 802 804 805 808 810 812 813 815 816 818 819 821 822 824 825 827 827 829 830 830 831 832 832 833 833 834 834 834 834 834 835 834 834 833 833 833 833 833 833 833 833 833 834 834 835 835 836 836 836 837 838 838 838 839 839 840 840
750 748 745 737 739 741 736 732 734 736 732 739 748 744 745 745 746 751 753 762 767 766 766 766 770 774 780 780 778 781 782 785 787 789 791 793 795 796 798 800 802 805 806 808 810 812 813 815 816 817 819 821 822 824 825 827 827 828 829 830 831 831 832 833 833 834 834 834 834 834 834 834 833 833 833 833 833 833 833 833 833 833 834 834 834 835 835 836 837 838 838 839 839 840 840 840 841
750 749 744 740 741 740 735 734 738 740 736 742 748 742 742 747 752 753 754 761 763 765 765 764 764 768 779 782 780 782 783 785 787 789 791 793 795 796 798 800 802 805 806 808 810 812 813 815 816 817 819 820 822 823 825 826 827 828 829 830 830 831 832 832 833 833 834 834 834 834 834 834 833 833 833 833 833 832 833 833 833 833 833 834 834 835 835 836 837 838 839 839 839 840 840 841 841
751 750 746 744 741 739 738 738 740 742 741 741 740 741 746 751 756 756 759 764 763 766 768 765 764 767 778 784 783 783 784 785 787 790 792 793 796 797 798 800 802 804 806 808 810 812 813 815 816 817 819 820 821 823 824 825 826 827 829 830 830 831 832 832 833 833 834 834 834 834 834 833 833 832 833 833 833 832 833 833 832 833 833 833 834 834 835 836 837 838 839 839 839 840 841 841 842
752 749 744 744 743 742 741 741 742 743 744 743 742 750 757 758 759 763 767 769 765 766 770 768 766 769 778 784 784 784 784 786 788 790 792 794 795 797 798 800 802 803 806 808 810 812 813 815 816 817 818 820 821 823 824 825 826 827 829 830 830 831 832 832 833 833 833 833 833 834 833 833 833 832 832 832 832 832 832 833 832 833 832 833 834 834 835 836 837 837 838 839 839 840 841 842 842
751 747 744 745 745 745 743 745 746 745 746 747 752 760 765 766 767 771 773 771 768 769 774 770 768 773 778 782 784 784 785 786 788 790 792 794 795 797 798 800 802 803 805 807 809 811 813 814 816 817 818 820 821 822 823 824 826 827 828 829 830 831 831 832 833 833 833 833 833 833 833 833 832 832 832 832 832 832 832 832 833 833 833 833 833 834 835 836 836 837 838 838 839 840 841 842 843
748 746 748 748 747 747 746 748 750 748 750 750 756 765 769 769 773 781 778 772 771 773 777 773 771 777 779 782 784 784 785 786 788 790 792 794 796 797 798 800 802 803 805 808 809 811 813 814 815 817 818 820 821 822 823 824 826 827 828 829 830 830 831 832 832 833 833 833 833 833 832 832 832 832 832 832 831 832 832 832 832 833 833 833 833 834 835 836 836 837 837 838 839 840 841 842 843
749 750 760 758 750 752 753 756 758 754 756 755 756 765 769 768 774 783 780 775 774 773 777 778 779 781 781 784 785 784 786 786 788 790 792 794 795 796 798 799 801 803 805 807 809 810 812 813 815 817 818 819 820 822 823 824 825 827 828 828 829 830 831 832 832 832 832 832 832 832 832 831 831 831 831 832 831 831 832 832 832 832 833 833 833 833 834 835 836 837 837 838 839 840 841 842 843
760 760 771 768 757 762 764 765 766 759 762 762 759 768 774 776 780 782 779 777 775 773 777 782 784 783 784 789 788 785 786 787 788 789 791 793 795 796 798 800 801 803 804 807 808 810 812 813 815 817 818 819 820 822 823 824 825 826 828 828 829 830 831 832 831 831 832 832 832 831 831 830 830 831 831 831 831 831 831 832 832 832 833 833 833 833 834 835 836 836 837 838 839 839 841 842 843
771 769 774 772 767 771 769 768 770 767 771 766 763 776 784 782 782 781 778 777 775 776 779 782 783 782 787 792 789 786 786 787 788 789 791 793 795 796 798 800 801 803 804 806 808 809 811 813 814 816 817 819 820 821 822 823 825 826 827 828 829 830 831 831 831 832 832 832 832 831 830 830 830 830 830 831 831 831 831 831 832 832 833 833 833 833 833 834 835 836 837 838 838 839 840 841 842
777 778 779 774 771 777 775 771 772 774 777 768 764 775 781 780 780 780 779 777 776 780 781 781 781 783 792 795 789 786 786 786 787 789 792 793 795 797 798 800 801 803 804 805 807 809 811 812 814 815 817 818 820 821 822 823 824 825 827 828 829 830 831 831 831 832 832 831 831 831 830 830 830 830 830 831 830 830 830 831 831 831 832 833 833 833 833 834 835 836 836 837 838 839 840 841 842
785 789 789 778 772 778 778 771 768 772 771 766 768 772 774 777 779 781 781 780 779 779 781 781 784 788 794 794 787 785 785 785 788 790 792 794 795 797 798 799 801 802 803 805 807 808 810 812 813 815 816 818 819 820 822 822 824 825 826 827 828 830 830 830 831 831 831 831 831 830 830 830 830 830 830 830 830 830 830 830 830 831 831 832 833 833 833 833 834 835 836 836 837 838 839 840 841
793 789 789 780 771 777 777 773 768 766 767 768 773 772 772 775 776 779 780 780 780 778 780 781 786 793 795 791 784 782 784 785 788 790 792 794 795 796 797 799 800 802 803 805 806 808 809 811 813 814 816 817 819 820 821 822 823 825 826 827 828 829 830 830 830 831 831 831 831 830 830 830 830 830 830 830 830 830 829 829 830 830 831 832 832 833 833 833 833 834 835 836 837 837 838 839 840
791 782 782 776 772 781 779 776 772 765 769 772 768 767 770 771 772 777 776 777 778 778 781 782 786 794 792 786 782 781 783 784 786 788 791 793 793 795 797 798 800 801 803 804 806 807 809 810 812 814 816 817 818 819 820 821 823 825 826 827 828 829 830 830 830 831 831 831 831 830 830 830 830 830 830 830 829 829 829 829 829 829 830 831 831 832 832 833 833 834 834 835 836 837 837 838 839
779 772 773 776 779 788 779 773 772 767 773 774 766 766 768 768 769 773 774 773 774 775 779 782 786 793 788 781 780 781 781 783 784 786 789 791 792 794 796 798 800 801 803 804 805 807 808 810 812 814 815 817 818 818 820 821 823 824 826 827 828 829 829 830 831 831 831 831 830 830 830 830 830 830 829 829 829 829 828 828 828 828 829 830 831 831 832 832 832 833 834 834 835 836 837 837 838
766 759 761 770 776 785 777 770 771 766 774 777 768 770 772 771 772 773 773 771 772 773 776 779 783 787 784 779 779 780 781 782 782 784 787 789 791 794 795 797 799 801 802 803 805 806 808 810 812 814 815 816 817 818 820 821 823 824 826 827 828 828 828 829 830 830 830 831 830 830 830 830 830 829 829 829 828 828 828 828 828 828 829 829 830 830 831 831 832 832 833 833 834 835 836 837 837
756 753 758 765 771 782 776 770 770 764 773 778 770 774 777 776 776 774 772 771 772 774 775 777 779 780 779 779 779 779 780 780 780 783 785 787 790 792 794 796 798 800 801 803 805 806 807 809 811 813 814 815 816 818 819 821 822 824 825 826 827 827 828 829 830 830 830 830 830 830 830 830 829 829 829 828 828 828 827 827 827 828 828 829 829 830 830 831 831 832 832 833 833 834 835 836 837
754 754 763 769 771 778 774 769 770 765 772 779 774 779 784 781 778 775 774 774 772 772 774 775 775 776 777 778 778 779 779 779 780 781 783 786 789 791 794 796 797 799 800 802 804 805 806 808 810 812 813 814 816 817 819 820 821 823 824 825 825 826 827 828 828 829 830 830 830 830 829 829 829 829 828 828 828 827 827 827 827 828 828 828 829 829 830 830 831 832 832 832 833 833 834 835 837
758 757 767 773 769 772 774 770 770 767 773 780 778 782 788 783 778 776 777 777 771 767 769 771 773 775 776 777 777 778 779 779 779 780 782 785 787 789 792 795 796 798 799 801 803 804 806 808 809 811 812 813 815 816 818 819 821 822 823 824 825 825 826 828 828 828 829 829 829 829 829 829 828 828 828 828 828 827 827 827 827 827 828 828 828 829 829 830 831 831 832 832 832 833 833 834 835
767 770 772 770 764 767 773 773 772 771 772 777 779 782 784 780 777 776 775 775 771 766 766 767 769 772 773 773 774 775 777 778 779 779 781 784 785 788 791 793 795 796 798 800 801 803 804 806 808 809 811 812 814 816 817 819 820 822 823 824 825 825 826 828 828 828 829 829 829 829 828 828 828 828 828 827 827 827 827 827 827 827 827 828 828 828 829 829 830 831 831 832 832 832 832 833 835
775 782 773 761 759 760 765 770 770 770 771 772 778 785 783 777 778 777 771 772 770 764 764 766 767 769 769 770 771 773 774 775 777 778 780 782 784 787 789 791 793 795 797 798 799 801 803 805 807 808 810 812 813 815 816 818 820 821 822 824 825 826 826 827 828 827 828 828 828 828 828 828 827 827 827 827 827 827 827 827 827 827 827 828 828 828 829 829 830 830 831 831 832 832 832 833 834
780 777 761 752 756 758 765 770 768 776 783 775 777 794 792 779 779 777 770 771 768 761 762 764 765 766 767 768 770 771 771 773 774 776 778 780 783 786 788 790 791 793 794 796 798 800 802 803 805 807 809 811 812 814 816 817 819 820 821 823 823 824 825 826 826 826 826 827 827 827 827 827 827 827 826 826 826 826 826 827 827 827 827 828 828 828 828 829 829 830 830 831 831 832 832 833 833
774 762 753 751 753 760 768 771 771 780 785 772 771 791 795 781 772 766 762 764 762 760 761 761 761 762 763 765 767 768 768 770 772 773 775 778 781 784 786 788 790 792 793 795 797 798 800 802 804 806 808 809 811 813 815 816 818 819 820 821 822 823 823 823 825 825 825 825 826 827 827 826 826 826 826 826 826 826 826 826 827 827 827 828 828 828 828 828 829 829 830 830 831 831 832 832 833
768 753 752 753 756 763 765 767 770 769 773 776 775 786 794 784 766 754 754 758 759 759 759 759 758 758 760 761 762 764 765 767 769 771 773 776 779 782 785 787 789 791 792 794 796 797 799 801 803 805 806 808 810 812 813 815 817 818 819 820 821 821 821 822 823 824 825 825 826 826 826 826 826 825 826 826 826 826 826 826 826 827 827 828 828 828 828 828 829 829 829 830 830 831 832 832 832
762 751 750 751 756 761 759 768 772 764 775 789 781 780 793 789 768 751 750 753 755 756 754 754 755 755 757 758 759 761 762 764 766 769 771 773 777 780 783 785 787 790 791 793 794 796 798 800 802 803 805 807 808 810 812 814 816 817 818 819 819 820 820 821 822 823 824 825 826 826 826 826 826 825 825 825 825 825 825 825 826 826 827 827 827 827 828 828 829 829 829 830 831 831 832 832 832
755 751 752 751 753 755 757 764 764 768 785 785 768 769 783 784 764 750 753 755 751 749 746 745 748 751 753 755 757 759 761 763 764 766 768 771 775 778 781 783 786 788 790 792 793 795 797 798 800 802 803 805 807 809 811 813 814 816 817 818 818 819 819 821 821 822 823 824 825 825 825 825 825 825 825 825 825 825 825 825 825 826 826 826 827 827 827 828 828 829 829 830 830 831 831 832 832
752 752 754 756 756 755 756 754 753 777 794 777 762 765 773 779 763 749 758 759 749 745 743 741 743 747 750 753 755 758 759 761 763 764 766 770 774 777 780 783 785 787 789 791 792 793 795 796 798 800 802 804 805 807 810 811 813 814 815 817 817 818 819 820 821 821 823 823 824 824 824 825 825 825 825 824 825 825 825 825 825 825 826 826 827 827 827 828 828 828 829 829 830 830 831 831 831
752 754 755 760 765 762 762 761 763 785 792 771 763 761 762 774 766 749 752 753 747 745 744 743 743 744 747 751 753 755 758 760 762 764 764 768 773 776 779 781 783 786 787 789 790 792 793 795 797 798 800 803 804 806 808 810 812 813 814 815 816 817 818 819 819 820 821 821 822 823 823 824 824 824 824 824 824 824 824 824 824 825 825 825 826 826 827 827 827 828 828 828 829 829 830 830 830
754 758 761 768 776 775 780 783 780 785 783 767 763 763 764 771 762 748 749 749 745 743 742 743 742 743 746 749 752 753 756 759 761 763 763 766 771 774 777 780 782 784 786 787 789 790 791 793 795 797 799 801 803 805 807 809 810 812 813 814 815 816 817 818 818 818 819 820 820 822 822 823 823 823 823 823 823 823 823 824 824 824 825 825 825 826 826 826 827 827 827 828 828 828 829 829 829
762 765 771 778 782 785 795 798 791 787 780 766 760 766 775 775 759 747 747 746 742 740 741 742 742 745 747 747 751 753 756 759 759 760 762 764 768 771 774 777 779 782 783 785 786 788 790 791 793 796 797 800 802 804 806 807 809 810 812 813 814 815 816 817 817 817 818 818 819 820 821 821 821 822 822 822 822 823 823 823 823 823 824 824 824 825 825 826 826 826 826 827 827 828 828 828 828
766 765 774 783 781 784 791 794 794 790 781 772 768 777 788 784 766 749 743 740 738 738 740 742 743 744 745 747 750 754 756 757 757 758 760 762 766 769 772 774 776 778 780 782 784 786 788 790 792 794 796 799 801 802 804 806 807 809 810 811 812 813 814 815 816 816 816 817 818 818 819 819 820 820 820 821 821 822 822 822 822 823 823 823 823 824 824 825 825 825 825 826 826 827 827 827 827
762 760 774 781 774 775 777 781 786 782 779 776 771 774 775 769 760 751 745 740 738 739 739 742 744 744 745 748 750 752 754 755 756 758 759 761 765 768 770 772 774 775 777 779 781 783 786 788 789 792 794 796 798 800 802 803 805 807 808 810 811 812 813 814 815 815 816 816 816 817 818 818 819 819 819 819 820 821 821 821 822 822 822 822 822 823 823 823 824 824 824 825 825 826 826 826 826
761 763 771 764 757 762 766 773 774 770 777 778 768 766 763 761 763 759 755 754 748 743 740 742 746 746 747 750 750 751 752 753 755 756 758 760 763 767 769 770 771 773 775 777 779 781 784 786 787 789 791 794 796 797 799 801 803 805 806 808 809 810 812 812 813 814 815 816 816 816 817 817 817 818 818 818 819 819 820 820 821 821 821 821 821 822 822 822 822 822 823 823 824 824 824 824 825
761 769 764 751 754 758 755 765 770 768 782 781 766 766 769 777 783 771 764 766 761 753 746 745 747 747 749 751 752 752 751 753 754 754 756 758 761 765 767 768 769 771 773 775 778 780 782 784 785 787 790 791 794 795 797 799 801 803 804 806 807 809 810 811 811 812 813 814 815 815 816 816 816 817 817 817 818 818 818 819 819 820 820 820 820 820 821 821 821 821 822 822 822 823 823 823 823
751 755 748 748 764 763 752 762 770 774 789 785 771 770 771 780 788 778 771 769 765 761 756 751 751 750 751 751 752 753 754 754 755 755 756 757 760 763 765 767 769 770 773 774 777 779 781 783 784 786 788 790 792 794 795 797 799 801 802 803 805 806 807 808 809 810 811 812 812 813 814 814 815 815 816 816 816 816 817 817 818 818 819 819 819 819 819 819 820 820 820 820 821 821 821 821 821
746 746 743 743 753 754 749 753 758 767 784 786 780 782 778 775 776 776 775 768 763 765 762 758 757 756 757 756 754 755 755 757 757 756 757 758 761 764 765 767 768 770 772 774 776 778 779 781 783 785 787 788 790 792 793 795 796 797 799 801 802 803 804 806 807 808 809 809 810 810 811 812 813 813 814 814 815 815 815 816 816 816 817 817 817 817 818 818 818 818 818 819 819 819 819 819 819
748 749 747 744 744 747 749 751 747 753 773 782 783 788 785 774 769 770 772 769 765 766 765 763 761 759 760 760 759 758 757 759 759 758 758 759 761 764 765 766 768 769 771 773 775 776 778 780 782 784 786 787 789 790 791 793 794 796 798 799 800 800 801 803 804 805 806 806 807 807 808 809 810 811 811 812 813 813 813 814 814 814 814 815 815 815 816 816 816 816 816 817 817 817 817 817 817
741 742 742 742 742 746 757 765 753 744 758 770 777 790 790 775 769 770 770 769 768 767 767 766 764 764 764 763 763 763 761 761 761 760 760 760 761 763 764 766 767 769 770 772 774 775 777 779 780 782 783 784 786 787 788 790 792 794 795 795 797 798 798 800 801 802 802 803 804 804 805 806 807 808 809 809 810 810 811 812 811 812 812 812 813 813 814 814 814 814 814 815 815 815 815 815 815